Find Kosmos-2341

NORAD ID: 24772 Int'l Des: 1997-017 Owner: VMFR Country: RU operational
LEOCIRCULARPOLAR

实时位置

正在加载3D地球...

关于 Kosmos-2341

正在加载描述...

即将过境

Passes for default location (London). Set your location on the main map for personalized predictions.

高度历史

Loading altitude history...

两行轨道根数

1 24772U 97017A 26107.11562425 .00000071 00000-0 61707-4 0 9991
2 24772 82.9244 169.9738 0026913 72.6950 313.0999 13.71622217650700
Epoch: Apr 17, 2026 • Age: 10 hours

当前状态

高度 1006.3 km
速度 7.35 km/s
星下点 -26.47°S, 125.06°E
发射日期 Apr 17, 1997
运行时间 28.9 years
类型 other

技术详情

分类 Payload
质量 800.00 kg
干质量 800.00 kg
总质量 800.00 kg
长度 5.00 m
直径 2.10 m
跨度 17.00 m
形状 Cyl + Ant
制造商 POL
平台类型 KAUR-1 11F627
阶段状态 Unknown Transfer Status
所有者/国家 VMFR/RU

Most Searched